Location: Newark
(36.1222°N, 100.9183°E)
Time: 02:25:54
(UTC+00:00)

ISS - Visible Passes

Search period start: 17 October 2019 00:00
Search period end: 27 October 2019 00:00
Orbit: 411 x 421 km, 51.6° (Epoch: 16 October)

Date Brightness Start Highest point End Pass type
(mag) Time Alt. Az. Time Alt. Az. Time Alt. Az.
21 Oct -0.7 22:36:15 10° SSE 22:38:21 16° SE 22:40:26 10° E visible
23 Oct -2.9 22:34:25 10° SSW 22:37:40 50° SE 22:40:57 10° ENE visible
24 Oct -1.7 21:47:43 19° S 21:49:12 26° SE 21:52:04 10° ENE visible
25 Oct -0.4 21:02:05 12° ESE 21:02:05 12° ESE 21:02:40 10° E visible
25 Oct -3.5 22:35:02 19° WSW 22:37:13 48° NW 22:40:30 10° NE visible
26 Oct -3.4 21:49:10 61° NE 21:49:10 61° NE 21:52:00 10° NE visible
